Showing default

LYNK TOWER 4, 55034

Orbit data source: Space-Track

LYNK TOWER 4, 55034 is a payload satellite owned by Lynk (US) in SSO that was launched on Tue, 03 Jan 2023 UTC via an FALCON 9 launch vehicle from the Air Force Eastern Test Range (AFETR). Payload-class satellites include a variety of spacecraft equipped with specific instruments for various scientific and technological missions. These include communications satellites like Starlink; space stations such as the ISS; scientific satellites like the Hubble; Earth observation satellites from companies like Planet Labs, Umbra, and HawkEye 360; GPS; miniature CubeSats for education and research; and military/defense satellites.

Loading next visibility...
Identifier
55034, 2023-001AB
Orbit
SSO
Country
Flag of USUS
Related business
Manufacturer
Lynk
Mission
Operational Commercial Communications
Bus & Motor
LYNK SHANNON, Unknown motor
Mass
~80 kg wet, ~80 kg dry
Launch date (UTC)
2023-01-03 (3 years ago)
Launch vehicle
FALCON 9
Launch site
Air Force Eastern Test Range (AFETR)
Object type
Payload
Rocket body
Debris
Shape & HBR
Box, 0.5 m
Radar Cross Section
0.650 m², Medium (>0.1 m² and < 1m²)

Expand to show TLE details & history
Last TLE update: 14 hours ago

TLE from 14 hours ago
0 LYNK TOWER 4
1 55034U 23001AB  25309.65387525  .00009216  00000-0  32795-3 0  9990
2 55034  97.3551   5.8920 0008899 184.8254 175.2902 15.29151414157618
Epoch: 2025-11-05T15:41Z
TLE epoch observation values (Epoch: 2025-11-05T15:41:34.821Z)
Latitude
-0.00003°
Longitude
85.37347°
Altitude
487.534 km
Speed
7.618 km/s
True Right ascension
00h 23m 34s
True Declination
0° 00' 00"
Sunlit
Object was in full shadow at epoch
Visualization orbit readout
Latitude
Unknown
Longitude
Unknown
Altitude
Unknown
Speed
Unknown
Apparent Right ascension
Unknown
Apparent Declination
Unknown
Sunlit
N/A
Visualization observer readout
Local Sidereal Time
01:20:51
Azimuth
Unknown
Elevation
Unknown
Doppler factor
Unknown
Orbital elements
Apogee altitude
481.398 km
Perigee altitude
469.2 km
Semi-major axis
6,853.436 km
Eccentricity
0.00089
Inclination
97.3551°
RAAN
5.892°
Arg. of periapsis
184.8254°
True anomaly
175.29856°
Mean anomaly
175.2902°
Eccentric anomaly
175.29438°
Mean motion
3.82543 °/min
Orbital period
94.11 mins
BSTAR
0.00032795
Loading maneuver chart data...
Computing Atmospheric mass density...

Documentation

Showing up to 5 results
|